GW1497 Weather Reports


time (UTC)temp
C
wind
direction
speed
KPH
gust
KPH
rain 1hr
cm
rain 24hr
cm
rain mn
cm
humidity
%
barometer
mb
20260507022710 11 26 1.6 3.2 0.00 0.00 2.18 99 1015.2
20260507022117 11 51 1.6 1.6 0.00 0.00 2.18 98 1015.2
20260507021541 11 115 1.6 3.2 0.00 0.00 2.18 98 1014.9
20260507020939 11 14 0.0 3.2 0.00 0.00 2.18 98 1014.9
20260507020318 11 15 3.2 4.8 0.00 0.00 2.18 98 1014.5
20260507015728 11 13 1.6 3.2 0.00 0.00 2.18 97 1014.9
20260507015145 11 58 0.0 3.2 0.00 0.00 2.18 96 1014.9
20260507014513 11 124 0.0 1.6 0.00 0.00 2.18 97 1014.9
20260507013930 11 114 3.2 3.2 0.00 0.00 2.18 97 1014.9
20260507013354 11 132 1.6 3.2 0.00 0.00 2.18 97 1014.9
20260507012144 11 35 0.0 0.0 0.00 0.00 2.18 96 1014.5
20260507011532 11 353 1.6 3.2 0.00 0.00 2.18 96 1014.2
20260507010953 11 95 0.0 3.2 0.00 0.00 2.18 95 1014.2
20260507010329 11 49 1.6 3.2 0.00 0.00 2.18 95 1014.2
20260507005135 11 211 0.0 0.0 0.00 0.00 2.18 93 1014.9
20260507004543 12 83 0.0 1.6 0.00 0.00 2.18 93 1014.5
20260507003344 11 115 3.2 3.2 0.00 0.00 2.18 93 1014.2
20260507002728 11 50 1.6 3.2 0.00 0.00 2.18 93 1013.8
20260507001548 12 14 0.0 1.6 0.00 0.00 2.18 93 1014.2
20260507000314 12 54 0.0 1.6 0.00 0.00 2.18 94 1013.8
20260506235728 12 90 1.6 1.6 0.00 0.00 2.18 92 1013.8
20260506235133 12 52 1.6 3.2 0.00 0.00 2.18 91 1013.8
20260506234523 12 31 4.8 4.8 0.00 0.00 2.18 88 1013.8
20260506233939 12 37 3.2 3.2 0.00 0.00 2.18 87 1013.8
20260506233351 12 34 4.8 4.8 0.00 0.00 2.18 87 1014.2
20260506232743 12 37 0.0 1.6 0.00 0.00 2.18 87 1014.5
20260506232149 12 7 1.6 3.2 0.00 0.00 2.18 87 1014.2
20260506231525 12 33 3.2 4.8 0.00 0.00 2.18 86 1014.2
20260506230932 12 25 1.6 3.2 0.00 0.00 2.18 87 1014.2
20260506230329 12 22 1.6 3.2 0.00 0.00 2.18 87 1014.2
20260506225711 12 12 1.6 1.6 0.00 0.00 2.18 87 1014.2
20260506225110 12 35 0.0 1.6 0.00 0.00 2.18 88 1014.2
20260506224517 13 34 0.0 3.2 0.00 0.00 2.18 90 1013.8
20260506223932 12 22 4.8 4.8 0.00 0.00 2.18 87 1014.2
20260506223327 12 6 1.6 3.2 0.00 0.00 2.18 88 1014.5
20260506222722 12 326 0.0 1.6 0.00 0.00 2.18 87 1014.2
20260506222144 12 342 0.0 3.2 0.00 0.00 2.18 88 1013.8
20260506221515 12 350 1.6 3.2 0.00 0.00 2.18 89 1013.8
20260506220917 12 337 1.6 3.2 0.00 0.00 2.18 88 1013.8
20260506220343 12 291 3.2 3.2 0.00 0.00 2.18 87 1013.5
20260506215738 12 310 3.2 3.2 0.00 0.00 2.18 88 1013.5
20260506215141 12 321 1.6 4.8 0.00 0.00 2.18 87 1013.8
20260506214549 12 321 1.6 3.2 0.00 0.00 2.18 87 1013.5
20260506213317 13 329 1.6 3.2 0.00 0.00 2.18 86 1013.8
20260506212713 13 19 0.0 0.0 0.00 0.00 2.18 85 1013.5
20260506212127 13 341 0.0 3.2 0.00 0.00 2.18 84 1013.5
20260506210929 13 351 3.2 3.2 0.00 0.00 2.18 84 1013.5
20260506210347 13 291 0.0 3.2 0.00 0.00 2.18 85 1013.5
20260506204531 13 347 1.6 3.2 0.00 0.00 2.18 85 1013.2
20260506203311 14 20 4.8 6.4 0.00 0.00 2.18 83 1013.2
20260506202713 13 106 1.6 6.4 0.00 0.00 2.18 84 1012.8
20260506201533 12 289 0.0 3.2 0.00 0.00 2.18 91 1013.2
20260506200314 12 356 1.6 3.2 0.00 0.00 2.18 90 1013.2
20260506195752 12 302 3.2 4.8 0.00 0.00 2.18 89 1013.2
20260506194536 12 247 4.8 4.8 0.00 0.00 2.18 88 1013.2
20260506193953 12 281 3.2 4.8 0.00 0.00 2.18 89 1013.2
20260506193353 12 306 3.2 6.4 0.00 0.00 2.18 90 1013.2
20260506192743 12 287 4.8 8.0 0.00 0.00 2.18 90 1012.8
20260506192132 12 309 6.4 6.4 0.00 0.00 2.18 90 1012.8
20260506191543 12 281 3.2 6.4 0.00 0.00 2.18 90 1013.2
20260506190913 12 305 6.4 9.7 0.00 0.00 2.18 92 1012.8
20260506190340 12 280 4.8 6.4 0.00 0.00 2.18 93 1013.2
20260506185719 12 267 3.2 6.4 0.00 0.00 2.18 91 1013.2
20260506184536 12 315 1.6 3.2 0.00 0.00 2.18 93 1012.8
20260506183920 12 316 0.0 6.4 0.00 0.00 2.18 95 1013.2
20260506183330 11 310 4.8 9.7 0.00 0.00 2.18 95 1013.2
20260506182740 11 263 4.8 9.7 0.00 0.00 2.18 95 1013.2
20260506181541 11 251 4.8 4.8 0.00 0.00 2.18 97 1012.8
20260506180936 11 312 4.8 4.8 0.00 0.00 2.18 98 1013.2
20260506180354 11 290 9.7 9.7 0.00 0.00 2.18 99 1012.8
20260506175748 11 293 6.4 6.4 0.00 0.00 2.18 99 1012.8
20260506175127 11 321 3.2 6.4 0.00 0.00 2.18 99 1013.2
20260506174531 11 296 4.8 9.7 0.00 0.00 2.18 99 1012.8
20260506173943 11 270 4.8 8.0 0.00 0.00 2.18 99 1013.2
20260506173318 11 280 6.4 9.7 0.00 0.00 2.18 99 1013.2
20260506172712 11 283 4.8 9.7 0.00 0.00 2.18 99 1012.8
20260506172141 11 278 6.4 6.4 0.00 0.00 2.18 99 1012.8
20260506170953 11 309 3.2 8.0 0.00 0.00 2.18 99 1012.8
20260506170310 11 304 4.8 9.7 0.00 0.00 2.18 99 1012.8
20260506163946 11 268 6.4 11.3 0.00 0.00 2.18 99 1012.5
20260506163334 11 303 4.8 8.0 0.00 0.00 2.18 99 1012.8
20260506162749 11 272 3.2 8.0 0.00 0.00 2.18 99 1012.8
20260506162115 12 316 3.2 4.8 0.00 0.00 2.18 99 1012.5
20260506161546 12 282 3.2 3.2 0.00 0.00 2.18 99 1012.5
20260506160934 12 297 0.0 3.2 0.00 0.00 2.18 99 1012.1
20260506160351 11 326 0.0 3.2 0.00 0.00 2.18 99 1012.1
20260506155711 11 304 1.6 3.2 0.00 0.00 2.18 99 1012.1
20260506155128 11 319 0.0 3.2 0.00 0.00 2.16 99 1012.1
20260506154542 11 303 0.0 3.2 0.00 0.00 2.16 99 1012.1
20260506153930 11 255 3.2 3.2 0.00 0.00 2.16 99 1012.1
20260506153334 11 290 6.4 6.4 0.00 0.00 2.16 99 1011.8
20260506152733 11 281 4.8 8.0 0.00 0.00 2.16 99 1011.8
20260506151533 12 339 3.2 6.4 0.00 0.00 2.16 99 1011.8
20260506150933 12 292 4.8 8.0 0.00 0.00 2.16 99 1011.5
20260506150311 12 299 8.0 16.1 0.00 0.00 2.16 99 1011.5
20260506145750 12 267 4.8 11.3 0.00 0.00 2.16 99 1011.1
20260506145133 12 293 9.7 12.9 0.00 0.00 2.16 99 1011.1
20260506144538 13 262 11.3 16.1 0.00 0.00 2.16 99 1011.1
20260506143929 14 294 12.9 14.5 0.00 0.00 2.13 99 1010.8
20260506143317 14 254 4.8 11.3 0.00 0.00 2.11 99 1010.8
20260506142716 14 210 6.4 19.3 0.00 0.00 2.08 99 1010.4
20260506142117 14 169 0.0 6.4 0.00 0.00 2.08 99 1010.4
20260506141523 14 169 9.7 11.3 0.00 0.00 2.08 99 1010.1
20260506140935 14 212 6.4 14.5 0.00 0.00 2.08 99 1010.1
20260506140343 14 183 12.9 14.5 0.00 0.00 2.08 99 1010.1
20260506135734 14 285 3.2 9.7 0.00 0.00 2.08 99 1009.8
20260506135139 14 166 9.7 22.5 0.00 0.00 2.08 99 1009.4
20260506134512 14 172 6.4 16.1 0.00 0.00 2.08 99 1009.4
20260506133920 14 170 6.4 16.1 0.00 0.00 2.08 99 1009.4
20260506133350 14 145 9.7 16.1 0.00 0.00 2.08 99 1009.4
20260506132744 14 207 9.7 14.5 0.00 0.00 2.08 99 1009.8
20260506132120 14 198 9.7 9.7 0.00 0.00 2.08 99 1009.4
20260506131514 13 179 6.4 9.7 0.00 0.00 2.08 99 1009.8
20260506130920 13 235 3.2 12.9 0.00 0.00 2.08 99 1009.8
20260506125727 13 182 11.3 14.5 0.00 0.00 2.08 99 1009.8
20260506125146 13 181 3.2 12.9 0.00 0.00 2.08 99 1009.8
20260506124511 13 209 4.8 9.7 0.00 0.00 2.08 99 1009.8
20260506123932 13 138 4.8 4.8 0.00 0.00 2.08 99 1009.4
20260506123320 13 153 3.2 8.0 0.00 0.00 2.08 99 1009.4
20260506122715 13 177 4.8 8.0 0.00 0.00 2.08 99 1009.4
20260506122149 13 161 9.7 9.7 0.00 0.00 2.08 99 1009.4
20260506121518 13 160 4.8 14.5 0.00 0.00 2.08 99 1009.4
20260506120310 13 135 6.4 9.7 0.00 0.00 2.06 99 1009.8
20260506115715 13 137 8.0 12.9 0.00 0.00 2.06 99 1009.4
20260506115122 13 142 3.2 4.8 0.00 0.00 2.06 99 1009.4
20260506114533 13 144 8.0 8.0 0.00 0.00 2.06 99 1009.4
20260506113948 13 113 3.2 4.8 0.00 0.00 2.06 99 1009.4
20260506112733 13 43 3.2 4.8 0.00 0.00 2.01 99 1009.4
20260506111515 13 157 3.2 6.4 0.00 0.00 1.98 99 1009.4
20260506110913 13 103 6.4 9.7 0.00 0.00 1.98 99 1009.4
20260506105711 13 166 3.2 8.0 0.00 0.00 1.91 99 1009.4
20260506105146 13 98 4.8 14.5 0.00 0.00 1.88 99 1009.1
20260506103921 13 181 4.8 11.3 0.00 0.00 1.83 99 1009.4
20260506103351 13 142 4.8 8.0 0.00 0.00 1.83 99 1009.1
20260506102708 13 44 0.0 4.8 0.00 0.00 1.78 99 1009.4
20260506102109 13 273 4.8 4.8 0.00 0.00 1.75 99 1009.1
20260506100950 13 263 1.6 3.2 0.00 0.00 1.70 99 1009.4
20260506095711 13 299 3.2 3.2 0.00 0.00 1.63 99 1009.4
20260506095149 13 1 1.6 4.8 0.00 0.00 1.57 99 1009.1
20260506094538 13 314 0.0 4.8 0.00 0.00 1.52 99 1009.1
20260506093321 13 139 1.6 4.8 0.00 0.00 1.40 99 1009.4
20260506092747 13 139 1.6 3.2 0.00 0.00 1.35 99 1009.4
20260506092113 13 170 8.0 8.0 0.00 0.00 1.30 99 1009.1
20260506090323 13 118 3.2 6.4 0.00 0.00 1.19 99 1009.1
20260506085736 13 195 6.4 9.7 0.00 0.00 1.14 99 1009.4
20260506085114 13 181 4.8 17.7 0.00 0.00 1.12 99 1009.4
20260506083926 13 243 0.0 6.4 0.00 0.00 0.84 98 1009.8
20260506083337 13 201 4.8 4.8 0.00 0.00 0.71 98 1009.8
20260506082737 13 131 6.4 6.4 0.00 0.00 0.66 97 1010.1
20260506082142 13 189 8.0 9.7 0.00 0.00 0.53 97 1009.8
20260506081514 13 255 3.2 3.2 0.00 0.00 0.41 96 1010.1
20260506080930 13 272 3.2 4.8 0.00 0.00 0.28 96 1010.1
20260506080318 13 206 3.2 6.4 0.00 0.00 0.23 94 1009.8
20260506073309 14 182 4.8 14.5 0.00 0.00 0.13 89 1009.4
20260506072709 15 185 8.0 20.9 0.00 0.00 0.13 87 1009.4
20260506072143 15 184 6.4 9.7 0.00 0.00 0.10 87 1009.4
20260506071550 15 182 9.7 9.7 0.00 0.00 0.05 82 1009.4
20260506070907 15 165 12.9 17.7 0.00 0.00 0.03 80 1009.4
20260506070330 15 124 6.4 14.5 0.00 0.00 0.03 79 1009.4
20260506062127 16 264 0.0 3.2 0.00 0.00 0.00 74 1009.4
20260506061510 16 142 3.2 4.8 0.00 0.00 0.00 71 1009.4
20260506060342 16 173 6.4 9.7 0.00 0.00 0.00 72 1009.8
20260506050949 17 129 4.8 6.4 0.00 0.00 0.00 64 1010.4
20260506050336 17 19 3.2 6.4 0.00 0.00 0.00 63 1010.4
20260506044516 17 183 1.6 6.4 0.00 0.00 0.00 61 1010.4
20260506043920 17 115 1.6 4.8 0.00 0.00 0.00 61 1010.4
20260506042725 17 159 3.2 3.2 0.00 0.00 0.00 62 1010.8
20260506042128 17 62 3.2 4.8 0.00 0.00 0.00 64 1010.4
20260506041543 17 181 0.0 3.2 0.00 0.00 0.00 62 1010.4
20260506040349 17 228 0.0 4.8 0.00 0.00 0.00 63 1010.8
20260506035712 16 138 3.2 6.4 0.00 0.00 0.00 66 1010.8
20260506035141 16 48 1.6 6.4 0.00 0.00 0.00 68 1011.1
20260506033948 17 157 3.2 3.2 0.00 0.00 0.00 63 1010.8
20260506033317 18 162 3.2 3.2 0.00 0.00 0.00 57 1010.4
20260506032715 18 35 3.2 4.8 0.00 0.00 0.00 57 1010.1
20260506032147 18 45 3.2 4.8 0.00 0.00 0.00 58 1010.4
20260506031550 18 67 3.2 4.8 0.00 0.00 0.00 57 1010.4
20260506030914 17 70 0.0 0.0 0.00 0.00 0.00 59 1011.1
20260506030347 17 244 1.6 3.2 0.00 0.00 0.00 60 1011.1
20260506025746 18 287 3.2 3.2 0.00 0.00 0.00 58 1011.1
20260506025129 18 136 0.0 3.2 0.00 0.00 0.00 55 1010.8
20260506024518 18 170 0.0 1.6 0.00 0.00 0.00 56 1011.1
20260506023916 18 16 0.0 1.6 0.00 0.00 0.00 55 1010.8
20260506023351 18 10 1.6 1.6 0.00 0.00 0.00 56 1010.8